Year,Month,Day,Hour,Minute,Value (Times are PST for temperature in C)
2013,07,17,00,00,20.80
2013,07,17,00,01,20.80
2013,07,17,00,02,20.80
2013,07,17,00,03,20.90
2013,07,17,00,04,20.90
2013,07,17,00,05,20.90
2013,07,17,00,06,21.00
2013,07,17,00,07,21.00
2013,07,17,00,08,21.10
2013,07,17,00,09,21.10
2013,07,17,00,10,21.10
2013,07,17,00,11,21.10
2013,07,17,00,12,21.20
2013,07,17,00,13,21.20
2013,07,17,00,14,21.20
2013,07,17,00,15,21.20
2013,07,17,00,16,21.30
2013,07,17,00,17,21.30
2013,07,17,00,18,21.30
2013,07,17,00,19,21.30
2013,07,17,00,20,21.30
2013,07,17,00,21,21.30
2013,07,17,00,22,21.30
2013,07,17,00,23,21.30
2013,07,17,00,24,21.30
2013,07,17,00,25,21.40
2013,07,17,00,26,21.40
2013,07,17,00,27,21.50
2013,07,17,00,28,21.50
2013,07,17,00,29,21.60
2013,07,17,00,30,21.70
2013,07,17,00,31,21.80
2013,07,17,00,32,21.80
2013,07,17,00,33,21.90
2013,07,17,00,34,22.00
2013,07,17,00,35,22.00
2013,07,17,00,36,22.10
2013,07,17,00,37,22.20
2013,07,17,00,38,22.30
2013,07,17,00,39,22.30
2013,07,17,00,40,22.30
2013,07,17,00,41,22.40
2013,07,17,00,42,22.40
2013,07,17,00,43,22.40
2013,07,17,00,44,22.50
2013,07,17,00,45,22.60
2013,07,17,00,46,22.60
2013,07,17,00,47,22.70
2013,07,17,00,48,22.70
2013,07,17,00,49,22.80
2013,07,17,00,50,22.80
2013,07,17,00,51,22.80
2013,07,17,00,52,22.80
2013,07,17,00,53,22.80
2013,07,17,00,54,22.70
2013,07,17,00,55,22.70
2013,07,17,00,56,22.70
2013,07,17,00,57,22.70
2013,07,17,00,58,22.70
2013,07,17,00,59,22.70
2013,07,17,01,00,22.70
2013,07,17,01,01,22.70
2013,07,17,01,02,22.60
2013,07,17,01,03,22.70
2013,07,17,01,04,22.70
2013,07,17,01,05,22.70
2013,07,17,01,06,22.70
2013,07,17,01,07,22.70
2013,07,17,01,08,22.70
2013,07,17,01,09,22.70
2013,07,17,01,10,22.70
2013,07,17,01,11,22.70
2013,07,17,01,12,22.70
2013,07,17,01,13,22.60
2013,07,17,01,14,22.60
2013,07,17,01,15,22.60
2013,07,17,01,16,22.60
2013,07,17,01,17,22.60
2013,07,17,01,18,22.60
2013,07,17,01,19,22.50
2013,07,17,01,20,22.50
2013,07,17,01,21,22.50
2013,07,17,01,22,22.50
2013,07,17,01,23,22.50
2013,07,17,01,24,22.50
2013,07,17,01,25,22.50
2013,07,17,01,26,22.50
2013,07,17,01,27,22.50
2013,07,17,01,28,22.50
2013,07,17,01,29,22.50
2013,07,17,01,30,22.50
2013,07,17,01,31,22.50
2013,07,17,01,32,22.50
2013,07,17,01,33,22.50
2013,07,17,01,34,22.50
2013,07,17,01,35,22.50
2013,07,17,01,36,22.50
2013,07,17,01,37,22.50
2013,07,17,01,38,22.50
2013,07,17,01,39,22.40
2013,07,17,01,40,22.40
2013,07,17,01,41,22.40
2013,07,17,01,42,22.40
2013,07,17,01,43,22.30
2013,07,17,01,44,22.30
2013,07,17,01,45,22.30
2013,07,17,01,46,22.20
2013,07,17,01,47,22.20
2013,07,17,01,48,22.20
2013,07,17,01,49,22.20
2013,07,17,01,50,22.20
2013,07,17,01,51,22.20
2013,07,17,01,52,22.20
2013,07,17,01,53,22.20
2013,07,17,01,54,22.20
2013,07,17,01,55,22.20
2013,07,17,01,56,22.20
2013,07,17,01,57,22.20
2013,07,17,01,58,22.20
2013,07,17,01,59,22.20
2013,07,17,02,00,22.20
2013,07,17,02,01,22.20
2013,07,17,02,02,22.20
2013,07,17,02,03,22.10
2013,07,17,02,04,22.10
2013,07,17,02,05,22.10
2013,07,17,02,06,22.10
2013,07,17,02,07,22.20
2013,07,17,02,08,22.30
2013,07,17,02,09,22.40
2013,07,17,02,10,22.40
2013,07,17,02,11,22.50
2013,07,17,02,12,22.60
2013,07,17,02,13,22.60
2013,07,17,02,14,22.60
2013,07,17,02,15,22.70
2013,07,17,02,16,22.70
2013,07,17,02,17,22.70
2013,07,17,02,18,22.70
2013,07,17,02,19,22.80
2013,07,17,02,20,22.80
2013,07,17,02,21,22.80
2013,07,17,02,22,22.80
2013,07,17,02,23,22.80
2013,07,17,02,24,22.80
2013,07,17,02,25,22.80
2013,07,17,02,26,22.80
2013,07,17,02,27,22.70
2013,07,17,02,28,22.70
2013,07,17,02,29,22.50
2013,07,17,02,30,22.40
2013,07,17,02,31,22.30
2013,07,17,02,32,22.20
2013,07,17,02,33,22.00
2013,07,17,02,34,22.00
2013,07,17,02,35,21.90
2013,07,17,02,36,21.80
2013,07,17,02,37,21.80
2013,07,17,02,38,21.70
2013,07,17,02,39,21.70
2013,07,17,02,40,21.70
2013,07,17,02,41,21.60
2013,07,17,02,42,21.60
2013,07,17,02,43,21.60
2013,07,17,02,44,21.50
2013,07,17,02,45,21.50
2013,07,17,02,46,21.40
2013,07,17,02,47,21.40
2013,07,17,02,48,21.40
2013,07,17,02,49,21.30
2013,07,17,02,50,21.20
2013,07,17,02,51,21.10
2013,07,17,02,52,21.00
2013,07,17,02,53,20.90
2013,07,17,02,54,20.80
2013,07,17,02,55,20.70
2013,07,17,02,56,20.50
2013,07,17,02,57,20.30
2013,07,17,02,58,20.20
2013,07,17,02,59,20.10
2013,07,17,03,00,20.00
2013,07,17,03,01,19.90
2013,07,17,03,02,19.90
2013,07,17,03,06,19.80
2013,07,17,03,07,19.80
2013,07,17,03,08,19.80
2013,07,17,03,09,19.80
2013,07,17,03,10,19.80
2013,07,17,03,11,19.70
2013,07,17,03,12,19.70
2013,07,17,03,13,19.70
2013,07,17,03,14,19.70
2013,07,17,03,15,19.70
2013,07,17,03,16,19.70
2013,07,17,03,17,19.60
2013,07,17,03,18,19.60
2013,07,17,03,19,19.60
2013,07,17,03,20,19.60
2013,07,17,03,21,19.50
2013,07,17,03,22,19.50
2013,07,17,03,23,19.40
2013,07,17,03,24,19.40
2013,07,17,03,25,19.30
2013,07,17,03,26,19.30
2013,07,17,03,27,19.30
2013,07,17,03,28,19.20
2013,07,17,03,29,19.20
2013,07,17,03,30,19.20
2013,07,17,03,31,19.20
2013,07,17,03,32,19.10
2013,07,17,03,33,19.10
2013,07,17,03,34,19.00
2013,07,17,03,35,19.00
2013,07,17,03,36,18.90
2013,07,17,03,37,18.90
2013,07,17,03,38,18.90
2013,07,17,03,39,18.80
2013,07,17,03,40,18.80
2013,07,17,03,41,18.80
2013,07,17,03,42,18.70
2013,07,17,03,43,18.70
2013,07,17,03,44,18.60
2013,07,17,03,45,18.60
2013,07,17,03,46,18.50
2013,07,17,03,47,18.50
2013,07,17,03,48,18.50
2013,07,17,03,49,18.40
2013,07,17,03,50,18.40
2013,07,17,03,51,18.40
2013,07,17,03,52,18.40
2013,07,17,03,53,18.40
2013,07,17,03,54,18.30
2013,07,17,03,55,18.30
2013,07,17,03,56,18.30
2013,07,17,03,57,18.30
2013,07,17,03,58,18.30
2013,07,17,03,59,18.20
2013,07,17,04,00,18.20
2013,07,17,04,01,18.10
2013,07,17,04,02,18.10
2013,07,17,04,03,18.10
2013,07,17,04,04,18.00
2013,07,17,04,05,18.00
2013,07,17,04,06,18.00
2013,07,17,04,07,17.90
2013,07,17,04,08,17.90
2013,07,17,04,09,17.90
2013,07,17,04,10,18.00
2013,07,17,04,11,18.00
2013,07,17,04,12,18.00
2013,07,17,04,13,18.00
2013,07,17,04,14,17.90
2013,07,17,04,15,17.80
2013,07,17,04,16,17.70
2013,07,17,04,17,17.50
2013,07,17,04,18,17.30
2013,07,17,04,19,17.10
2013,07,17,04,20,16.90
2013,07,17,04,21,16.70
2013,07,17,04,22,16.60
2013,07,17,04,23,16.50
2013,07,17,04,24,16.30
2013,07,17,04,25,16.20
2013,07,17,04,26,16.10
2013,07,17,04,27,16.10
2013,07,17,04,28,16.10
2013,07,17,04,29,16.10
2013,07,17,04,30,16.10
2013,07,17,04,31,16.10
2013,07,17,04,32,16.10
2013,07,17,04,33,16.10
2013,07,17,04,34,16.10
2013,07,17,04,35,16.00
2013,07,17,04,36,16.00
2013,07,17,04,37,15.90
2013,07,17,04,38,15.90
2013,07,17,04,39,15.90
2013,07,17,04,40,15.80
2013,07,17,04,41,15.80
2013,07,17,04,42,15.80
2013,07,17,04,43,15.80
2013,07,17,04,44,15.80
2013,07,17,04,45,15.80
2013,07,17,04,46,15.70
2013,07,17,04,47,15.70
2013,07,17,04,48,15.70
2013,07,17,04,49,15.60
2013,07,17,04,50,15.50
2013,07,17,04,51,15.50
2013,07,17,04,52,15.40
2013,07,17,04,53,15.40
2013,07,17,04,54,15.30
2013,07,17,04,55,15.30
2013,07,17,04,56,15.20
2013,07,17,04,57,15.20
2013,07,17,04,58,15.20
2013,07,17,04,59,15.20
2013,07,17,05,00,15.20
2013,07,17,05,01,15.20
2013,07,17,05,02,15.20
2013,07,17,05,03,15.20
2013,07,17,05,04,15.20
2013,07,17,05,05,15.20
2013,07,17,05,06,15.20
2013,07,17,05,07,15.20
2013,07,17,05,08,15.20
2013,07,17,05,09,15.20
2013,07,17,05,10,15.20
2013,07,17,05,11,15.20
2013,07,17,05,12,15.20
2013,07,17,05,13,15.20
2013,07,17,05,14,15.20
2013,07,17,05,15,15.30
2013,07,17,05,16,15.30
2013,07,17,05,17,15.30
2013,07,17,05,18,15.30
2013,07,17,05,19,15.40
2013,07,17,05,20,15.40
2013,07,17,05,21,15.40
2013,07,17,05,22,15.40
2013,07,17,05,23,15.40
2013,07,17,05,24,15.40
2013,07,17,05,25,15.40
2013,07,17,05,26,15.30
2013,07,17,05,27,15.30
2013,07,17,05,28,15.30
2013,07,17,05,29,15.30
2013,07,17,05,30,15.30
2013,07,17,05,31,15.30
2013,07,17,05,32,15.30
2013,07,17,05,33,15.30
2013,07,17,05,34,15.40
2013,07,17,05,35,15.40
2013,07,17,05,36,15.50
2013,07,17,05,37,15.50
2013,07,17,05,38,15.60
2013,07,17,05,39,15.60
2013,07,17,05,40,15.70
2013,07,17,05,41,15.70
2013,07,17,05,42,15.80
2013,07,17,05,43,15.90
2013,07,17,05,44,15.90
2013,07,17,05,45,15.90
2013,07,17,05,46,16.00
2013,07,17,05,47,16.10
2013,07,17,05,48,16.10
2013,07,17,05,49,16.20
2013,07,17,05,50,16.20
2013,07,17,05,51,16.30
2013,07,17,05,52,16.40
2013,07,17,05,53,16.40
2013,07,17,05,54,16.40
2013,07,17,05,55,16.50
2013,07,17,05,56,16.50
2013,07,17,05,57,16.50
2013,07,17,05,58,16.50
2013,07,17,05,59,16.60
2013,07,17,06,00,16.60
2013,07,17,06,01,16.70
2013,07,17,06,02,16.70
2013,07,17,06,03,16.80
2013,07,17,06,04,16.80
2013,07,17,06,05,16.80
2013,07,17,06,06,16.90
2013,07,17,06,07,16.90
2013,07,17,06,08,16.90
2013,07,17,06,09,16.90
2013,07,17,06,10,17.00
2013,07,17,06,11,17.10
2013,07,17,06,12,17.10
2013,07,17,06,13,17.10
2013,07,17,06,14,17.10
2013,07,17,06,15,17.10
2013,07,17,06,16,17.10
2013,07,17,06,17,17.00
2013,07,17,06,18,16.90
2013,07,17,06,19,16.90
2013,07,17,06,20,16.80
2013,07,17,06,21,16.80
2013,07,17,06,22,16.80
2013,07,17,06,23,16.70
2013,07,17,06,24,16.70
2013,07,17,06,25,16.70
2013,07,17,06,26,16.70
2013,07,17,06,27,16.70
2013,07,17,06,28,16.80
2013,07,17,06,29,16.80
2013,07,17,06,30,16.80
2013,07,17,06,31,16.80
2013,07,17,06,32,16.80
2013,07,17,06,33,16.80
2013,07,17,06,34,16.80
2013,07,17,06,35,16.80
2013,07,17,06,36,16.70
2013,07,17,06,37,16.70
2013,07,17,06,38,16.70
2013,07,17,06,39,16.70
2013,07,17,06,40,16.70
2013,07,17,06,41,16.70
2013,07,17,06,42,16.70
2013,07,17,06,43,16.70
2013,07,17,06,44,16.70
2013,07,17,06,45,16.60
2013,07,17,06,46,16.60
2013,07,17,06,47,16.60
2013,07,17,06,48,16.60
2013,07,17,06,49,16.60
2013,07,17,06,50,16.60
2013,07,17,06,51,16.50
2013,07,17,06,52,16.50
2013,07,17,06,53,16.50
2013,07,17,06,54,16.50
2013,07,17,06,55,16.50
2013,07,17,06,56,16.40
2013,07,17,06,57,16.40
2013,07,17,06,58,16.40
2013,07,17,06,59,16.40
2013,07,17,07,00,16.40
2013,07,17,07,01,16.40
2013,07,17,07,02,16.40
2013,07,17,07,03,16.40
2013,07,17,07,04,16.40
2013,07,17,07,05,16.40
2013,07,17,07,06,16.40
2013,07,17,07,07,16.40
2013,07,17,07,08,16.40
2013,07,17,07,09,16.30
2013,07,17,07,10,16.20
2013,07,17,07,11,16.20
2013,07,17,07,12,16.10
2013,07,17,07,13,16.10
2013,07,17,07,14,16.10
2013,07,17,07,15,16.10
2013,07,17,07,16,16.00
2013,07,17,07,17,16.00
2013,07,17,07,18,15.90
2013,07,17,07,19,15.90
2013,07,17,07,20,15.90
2013,07,17,07,21,15.90
2013,07,17,07,22,15.90
2013,07,17,07,23,15.80
2013,07,17,07,24,15.80
2013,07,17,07,25,15.80
2013,07,17,07,26,15.80
2013,07,17,07,27,15.80
2013,07,17,07,28,15.80
2013,07,17,07,29,15.70
2013,07,17,07,30,15.70
2013,07,17,07,31,15.60
2013,07,17,07,32,15.50
2013,07,17,07,33,15.40
2013,07,17,07,34,15.30
2013,07,17,07,35,15.20
2013,07,17,07,36,15.20
2013,07,17,07,37,15.20
2013,07,17,07,38,15.20
2013,07,17,07,39,15.20
2013,07,17,07,40,15.10
2013,07,17,07,41,15.10
2013,07,17,07,42,15.10
2013,07,17,07,43,15.10
2013,07,17,07,44,15.10
2013,07,17,07,45,15.20
2013,07,17,07,46,15.20
2013,07,17,07,47,15.20
2013,07,17,07,48,15.20
2013,07,17,07,49,15.30
2013,07,17,07,50,15.40
2013,07,17,07,51,15.40
2013,07,17,07,52,15.50
2013,07,17,07,53,15.60
2013,07,17,07,54,15.60
2013,07,17,07,55,15.70
2013,07,17,07,56,15.80
2013,07,17,07,57,15.90
2013,07,17,07,58,16.00
2013,07,17,07,59,16.00
2013,07,17,08,00,16.10
2013,07,17,08,01,16.10
2013,07,17,08,02,16.10
2013,07,17,08,03,16.20
2013,07,17,08,04,16.30
2013,07,17,08,05,16.40
2013,07,17,08,06,16.40
2013,07,17,08,07,16.50
2013,07,17,08,08,16.60
2013,07,17,08,09,16.70
2013,07,17,08,10,16.70
2013,07,17,08,11,16.80
2013,07,17,08,12,17.00
2013,07,17,08,13,17.10
2013,07,17,08,14,17.20
2013,07,17,08,15,17.20
2013,07,17,08,16,17.40
2013,07,17,08,17,17.50
2013,07,17,08,18,17.50
2013,07,17,08,19,17.50
2013,07,17,08,20,17.60
2013,07,17,08,21,17.60
2013,07,17,08,22,17.70
2013,07,17,08,23,17.70
2013,07,17,08,24,17.70
2013,07,17,08,25,17.70
2013,07,17,08,26,17.70
2013,07,17,08,27,17.70
2013,07,17,08,28,17.70
2013,07,17,08,29,17.80
2013,07,17,08,30,17.80
2013,07,17,08,31,17.80
2013,07,17,08,32,17.90
2013,07,17,08,33,18.00
2013,07,17,08,34,18.10
2013,07,17,08,35,18.20
2013,07,17,08,36,18.30
2013,07,17,08,37,18.40
2013,07,17,08,38,18.50
2013,07,17,08,39,18.60
2013,07,17,08,40,18.80
2013,07,17,08,41,18.80
2013,07,17,08,42,19.00
2013,07,17,08,43,19.10
2013,07,17,08,44,19.20
2013,07,17,08,45,19.30
2013,07,17,08,46,19.40
2013,07,17,08,47,19.40
2013,07,17,08,48,19.50
2013,07,17,08,49,19.60
2013,07,17,08,50,19.70
2013,07,17,08,51,19.80
2013,07,17,08,52,19.80
2013,07,17,08,53,19.80
2013,07,17,08,54,19.80
2013,07,17,08,55,19.70
2013,07,17,08,56,19.70
2013,07,17,08,57,19.70
2013,07,17,08,58,19.60
2013,07,17,08,59,19.50
2013,07,17,09,00,19.40
2013,07,17,09,01,19.30
2013,07,17,09,02,19.20
2013,07,17,09,03,19.10
2013,07,17,09,04,19.10
2013,07,17,09,05,19.10
2013,07,17,09,06,19.10
2013,07,17,09,07,19.10
2013,07,17,09,08,19.10
2013,07,17,09,09,19.10
2013,07,17,09,10,19.20
2013,07,17,09,11,19.30
2013,07,17,09,12,19.40
2013,07,17,09,13,19.50
2013,07,17,09,14,19.50
2013,07,17,09,15,19.60
2013,07,17,09,16,19.70
2013,07,17,09,17,19.70
2013,07,17,09,18,19.80
2013,07,17,09,19,19.80
2013,07,17,09,20,19.90
2013,07,17,09,21,20.00
2013,07,17,09,22,20.10
2013,07,17,09,23,20.10
2013,07,17,09,24,20.10
2013,07,17,09,25,20.20
2013,07,17,09,26,20.30
2013,07,17,09,27,20.40
2013,07,17,09,28,20.40
2013,07,17,09,29,20.60
2013,07,17,09,30,20.70
2013,07,17,09,31,20.70
2013,07,17,09,32,20.70
2013,07,17,09,33,20.80
2013,07,17,09,34,21.00
2013,07,17,09,35,21.00
2013,07,17,09,36,21.10
2013,07,17,09,37,21.20
2013,07,17,09,38,21.10
2013,07,17,09,39,21.00
2013,07,17,09,40,20.90
2013,07,17,09,41,20.80
2013,07,17,09,42,20.80
2013,07,17,09,43,20.80
2013,07,17,09,44,20.80
2013,07,17,09,45,20.80
2013,07,17,09,46,20.90
2013,07,17,09,47,20.90
2013,07,17,09,48,20.90
2013,07,17,09,49,20.90
2013,07,17,09,50,20.90
2013,07,17,09,51,20.90
2013,07,17,09,52,20.90
2013,07,17,09,53,20.90
2013,07,17,09,54,20.90
2013,07,17,09,55,20.90
2013,07,17,09,56,20.90
2013,07,17,09,57,20.90
2013,07,17,09,58,21.00
2013,07,17,09,59,20.90
2013,07,17,10,00,21.00
2013,07,17,10,01,21.00
2013,07,17,10,02,20.90
2013,07,17,10,03,21.00
2013,07,17,10,04,21.00
2013,07,17,10,05,21.00
2013,07,17,10,06,21.10
2013,07,17,10,07,21.10
2013,07,17,10,08,21.10
2013,07,17,10,09,21.00
2013,07,17,10,10,20.90
2013,07,17,10,11,20.80
2013,07,17,10,12,20.70
2013,07,17,10,13,20.60
2013,07,17,10,14,20.60
2013,07,17,10,15,20.40
2013,07,17,10,16,20.40
2013,07,17,10,17,20.30
2013,07,17,10,18,20.20
2013,07,17,10,19,20.10
2013,07,17,10,20,20.00
2013,07,17,10,21,19.90
2013,07,17,10,22,19.80
2013,07,17,10,23,19.70
2013,07,17,10,24,19.60
2013,07,17,10,25,19.60
2013,07,17,10,26,19.50
2013,07,17,10,27,19.50
2013,07,17,10,28,19.50
2013,07,17,10,29,19.40
2013,07,17,10,30,19.40
2013,07,17,10,31,19.40
2013,07,17,10,32,19.40
2013,07,17,10,33,19.40
2013,07,17,10,34,19.40
2013,07,17,10,35,19.40
2013,07,17,10,36,19.50
2013,07,17,10,37,19.50
2013,07,17,10,38,19.60
2013,07,17,10,39,19.80
2013,07,17,10,40,19.90
2013,07,17,10,41,19.90
2013,07,17,10,42,20.10
2013,07,17,10,43,20.30
2013,07,17,10,44,20.40
2013,07,17,10,45,20.50
2013,07,17,10,46,20.60
2013,07,17,10,47,20.70
2013,07,17,10,48,20.80
2013,07,17,10,49,20.80
2013,07,17,10,50,20.90
2013,07,17,10,51,20.90
2013,07,17,10,52,21.00
2013,07,17,10,53,21.10
2013,07,17,10,54,21.20
2013,07,17,10,55,21.30
2013,07,17,10,56,21.50
2013,07,17,10,57,21.60
2013,07,17,10,58,21.70
2013,07,17,10,59,21.80
2013,07,17,11,00,21.90
2013,07,17,11,01,21.90
2013,07,17,11,02,22.00
2013,07,17,11,03,21.90
2013,07,17,11,04,21.90
2013,07,17,11,05,21.80
2013,07,17,11,06,21.80
2013,07,17,11,07,21.70
2013,07,17,11,08,21.60
2013,07,17,11,09,21.60
2013,07,17,11,10,21.60
2013,07,17,11,11,21.60
2013,07,17,11,12,21.50
2013,07,17,11,13,21.40
2013,07,17,11,14,21.40
2013,07,17,11,15,21.40
2013,07,17,11,16,21.30
2013,07,17,11,17,21.30
2013,07,17,11,18,21.30
2013,07,17,11,19,21.20
2013,07,17,11,20,21.10
2013,07,17,11,21,21.10
2013,07,17,11,22,21.10
2013,07,17,11,23,21.10
2013,07,17,11,24,21.20
2013,07,17,11,25,21.20
2013,07,17,11,26,21.10
2013,07,17,11,27,21.10
2013,07,17,11,28,21.00
2013,07,17,11,29,21.00
2013,07,17,11,30,20.90
2013,07,17,11,31,20.90
2013,07,17,11,32,20.80
2013,07,17,11,33,20.70
2013,07,17,11,34,20.60
2013,07,17,11,35,20.50
2013,07,17,11,36,20.40
2013,07,17,11,37,20.50
2013,07,17,11,38,20.60
2013,07,17,11,39,20.80
2013,07,17,11,40,20.90
2013,07,17,11,41,21.10
2013,07,17,11,42,21.20
2013,07,17,11,43,21.30
2013,07,17,11,44,21.40
2013,07,17,11,45,21.50
2013,07,17,11,46,21.50
2013,07,17,11,47,21.40
2013,07,17,11,48,21.20
2013,07,17,11,49,21.10
2013,07,17,11,50,20.90
2013,07,17,11,51,20.80
2013,07,17,11,52,20.70
2013,07,17,11,53,20.60
2013,07,17,11,54,20.60
2013,07,17,11,55,20.60
2013,07,17,11,56,20.50
2013,07,17,11,57,20.50
2013,07,17,11,58,20.40
2013,07,17,11,59,20.30
2013,07,17,12,00,20.30
2013,07,17,12,01,20.30
2013,07,17,12,02,20.30
2013,07,17,12,03,20.30
2013,07,17,12,04,20.30
2013,07,17,12,05,20.20
2013,07,17,12,06,20.00
2013,07,17,12,07,19.90
2013,07,17,12,08,19.70
2013,07,17,12,09,19.60
2013,07,17,12,10,19.40
2013,07,17,12,11,19.30
2013,07,17,12,12,19.10
2013,07,17,12,13,19.00
2013,07,17,12,14,18.90
2013,07,17,12,15,18.80
2013,07,17,12,16,18.90
2013,07,17,12,17,18.90
2013,07,17,12,18,18.80
2013,07,17,12,19,18.60
2013,07,17,12,20,18.30
2013,07,17,12,21,18.00
2013,07,17,12,22,17.70
2013,07,17,12,23,17.50
2013,07,17,12,24,17.40
2013,07,17,12,25,17.40
2013,07,17,12,26,17.40
2013,07,17,12,27,17.50
2013,07,17,12,28,17.50
2013,07,17,12,29,17.50
2013,07,17,12,30,17.50
2013,07,17,12,31,17.40
2013,07,17,12,32,17.40
2013,07,17,12,33,17.30
2013,07,17,12,34,17.30
2013,07,17,12,35,17.30
2013,07,17,12,36,17.40
2013,07,17,12,37,17.30
2013,07,17,12,38,17.10
2013,07,17,12,39,16.90
2013,07,17,12,40,16.70
2013,07,17,12,41,16.50
2013,07,17,12,42,16.40
2013,07,17,12,43,16.40
2013,07,17,12,44,16.40
2013,07,17,12,45,16.40
2013,07,17,12,46,16.50
2013,07,17,12,47,16.60
2013,07,17,12,48,16.60
2013,07,17,12,49,16.70
2013,07,17,12,50,16.80
2013,07,17,12,51,16.80
2013,07,17,12,52,16.80
2013,07,17,12,53,16.90
2013,07,17,12,54,17.00
2013,07,17,12,55,17.20
2013,07,17,12,56,17.30
2013,07,17,12,57,17.50
2013,07,17,12,58,17.70
2013,07,17,12,59,17.80
2013,07,17,13,00,18.00
2013,07,17,13,01,18.10
2013,07,17,13,02,18.40
2013,07,17,13,03,18.60
2013,07,17,13,04,18.80
2013,07,17,13,05,19.00
2013,07,17,13,06,19.20
2013,07,17,13,07,19.50
2013,07,17,13,08,19.70
2013,07,17,13,09,19.80
2013,07,17,13,10,20.00
2013,07,17,13,11,20.10
2013,07,17,13,12,20.10
2013,07,17,13,13,20.10
2013,07,17,13,14,20.20
2013,07,17,13,15,20.20
2013,07,17,13,16,20.30
2013,07,17,13,17,20.30
2013,07,17,13,18,20.20
2013,07,17,13,19,20.20
2013,07,17,13,20,20.20
2013,07,17,13,21,20.30
2013,07,17,13,22,20.30
2013,07,17,13,23,20.40
2013,07,17,13,24,20.40
2013,07,17,13,25,20.30
2013,07,17,13,26,20.30
2013,07,17,13,27,20.30
2013,07,17,13,28,20.40
2013,07,17,13,29,20.50
2013,07,17,13,30,20.50
2013,07,17,13,31,20.50
2013,07,17,13,32,20.50
2013,07,17,13,33,20.60
2013,07,17,13,34,20.70
2013,07,17,13,35,20.80
2013,07,17,13,36,20.80
2013,07,17,13,37,20.80
2013,07,17,13,38,20.70
2013,07,17,13,39,20.70
2013,07,17,13,40,20.70
2013,07,17,13,41,20.70
2013,07,17,13,42,20.70
2013,07,17,13,43,20.70
2013,07,17,13,44,20.70
2013,07,17,13,45,20.60
2013,07,17,13,46,20.60
2013,07,17,13,47,20.60
2013,07,17,13,48,20.50
2013,07,17,13,49,20.50
2013,07,17,13,50,20.50
2013,07,17,13,51,20.50
2013,07,17,13,52,20.60
2013,07,17,13,53,20.60
2013,07,17,13,54,20.80
2013,07,17,13,55,20.80
2013,07,17,13,56,20.80
2013,07,17,13,57,20.90
2013,07,17,13,58,21.00
2013,07,17,13,59,21.00
2013,07,17,14,00,21.10
2013,07,17,14,01,21.10
2013,07,17,14,02,21.20
2013,07,17,14,03,21.30
2013,07,17,14,04,21.30
2013,07,17,14,05,21.30
2013,07,17,14,06,21.30
2013,07,17,14,07,21.20
2013,07,17,14,08,21.10
2013,07,17,14,09,21.10
2013,07,17,14,10,21.10
2013,07,17,14,11,21.10
2013,07,17,14,12,21.10
2013,07,17,14,13,21.10
2013,07,17,14,14,21.10
2013,07,17,14,15,21.10
2013,07,17,14,16,21.10
2013,07,17,14,17,21.10
2013,07,17,14,18,21.10
2013,07,17,14,19,21.10
2013,07,17,14,20,21.10
2013,07,17,14,21,21.00
2013,07,17,14,22,21.00
2013,07,17,14,23,21.10
2013,07,17,14,24,21.10
2013,07,17,14,25,21.10
2013,07,17,14,26,21.20
2013,07,17,14,27,21.20
2013,07,17,14,28,21.20
2013,07,17,14,29,21.20
2013,07,17,14,30,21.20
2013,07,17,14,31,21.20
2013,07,17,14,32,21.20
2013,07,17,14,33,21.20
2013,07,17,14,34,21.30
2013,07,17,14,35,21.50
2013,07,17,14,36,21.40
2013,07,17,14,37,21.40
2013,07,17,14,38,21.40
2013,07,17,14,39,21.20
2013,07,17,14,40,21.20
2013,07,17,14,41,21.20
2013,07,17,14,42,21.20
2013,07,17,14,43,21.20
2013,07,17,14,44,21.20
2013,07,17,14,45,21.20
2013,07,17,14,46,21.30
2013,07,17,14,47,21.30
2013,07,17,14,48,21.30
2013,07,17,14,49,21.30
2013,07,17,14,50,21.30
2013,07,17,14,51,21.30
2013,07,17,14,52,21.40
2013,07,17,14,53,21.40
2013,07,17,14,54,21.40
2013,07,17,14,55,21.20
2013,07,17,14,56,21.20
2013,07,17,14,57,21.20
2013,07,17,14,58,21.20
2013,07,17,14,59,21.20
2013,07,17,15,00,21.30
2013,07,17,15,01,21.30
2013,07,17,15,02,21.30
2013,07,17,15,03,21.40
2013,07,17,15,04,21.50
2013,07,17,15,05,21.60
2013,07,17,15,06,21.70
2013,07,17,15,07,21.70
2013,07,17,15,08,21.70
2013,07,17,15,09,21.70
2013,07,17,15,10,21.70
2013,07,17,15,11,21.70
2013,07,17,15,12,21.70
2013,07,17,15,13,21.70
2013,07,17,15,14,21.70
2013,07,17,15,15,21.60
2013,07,17,15,16,21.50
2013,07,17,15,17,21.40
2013,07,17,15,18,21.30
2013,07,17,15,19,21.30
2013,07,17,15,20,21.40
2013,07,17,15,21,21.40
2013,07,17,15,22,21.40
2013,07,17,15,23,21.40
2013,07,17,15,24,21.40
2013,07,17,15,25,21.40
2013,07,17,15,26,21.40
2013,07,17,15,27,21.40
2013,07,17,15,28,21.40
2013,07,17,15,29,21.30
2013,07,17,15,30,21.20
2013,07,17,15,31,21.20
2013,07,17,15,32,21.20
2013,07,17,15,33,21.20
2013,07,17,15,34,21.20
2013,07,17,15,35,21.30
2013,07,17,15,36,21.30
2013,07,17,15,37,21.30
2013,07,17,15,38,21.40
2013,07,17,15,39,21.40
2013,07,17,15,40,21.50
2013,07,17,15,41,21.50
2013,07,17,15,42,21.40
2013,07,17,15,43,21.40
2013,07,17,15,44,21.40
2013,07,17,15,45,21.40
2013,07,17,15,46,21.50
2013,07,17,15,47,21.50
2013,07,17,15,48,21.50
2013,07,17,15,49,21.50
2013,07,17,15,50,21.50
2013,07,17,15,51,21.40
2013,07,17,15,52,21.40
2013,07,17,15,53,21.40
2013,07,17,15,54,21.40
2013,07,17,15,55,21.40
2013,07,17,15,56,21.40
2013,07,17,15,57,21.40
2013,07,17,15,58,21.50
2013,07,17,15,59,21.50
2013,07,17,16,00,21.50
2013,07,17,16,01,21.40
2013,07,17,16,02,21.50
2013,07,17,16,03,21.50
2013,07,17,16,04,21.60
2013,07,17,16,05,21.60
2013,07,17,16,06,21.70
2013,07,17,16,07,21.70
2013,07,17,16,08,21.70
2013,07,17,16,09,21.70
2013,07,17,16,10,21.70
2013,07,17,16,11,21.70
2013,07,17,16,12,21.70
2013,07,17,16,13,21.60
2013,07,17,16,14,21.60
2013,07,17,16,15,21.70
2013,07,17,16,16,21.70
2013,07,17,16,17,21.70
2013,07,17,16,18,21.70
2013,07,17,16,19,21.70
2013,07,17,16,20,21.70
2013,07,17,16,21,21.70
2013,07,17,16,22,21.60
2013,07,17,16,23,21.60
2013,07,17,16,24,21.50
2013,07,17,16,25,21.40
2013,07,17,16,26,21.40
2013,07,17,16,27,21.30
2013,07,17,16,28,21.40
2013,07,17,16,29,21.40
2013,07,17,16,30,21.50
2013,07,17,16,31,21.60
2013,07,17,16,32,21.70
2013,07,17,16,33,21.70
2013,07,17,16,34,21.70
2013,07,17,16,35,21.80
2013,07,17,16,36,21.90
2013,07,17,16,37,21.90
2013,07,17,16,38,21.90
2013,07,17,16,39,21.90
2013,07,17,16,40,21.90
2013,07,17,16,41,21.80
2013,07,17,16,42,21.80
2013,07,17,16,43,21.80
2013,07,17,16,44,21.80
2013,07,17,16,45,21.90
2013,07,17,16,46,21.90
2013,07,17,16,47,22.00
2013,07,17,16,48,22.00
2013,07,17,16,49,22.10
2013,07,17,16,50,22.10
2013,07,17,16,51,22.20
2013,07,17,16,52,22.10
2013,07,17,16,53,22.20
2013,07,17,16,54,22.20
2013,07,17,16,55,22.10
2013,07,17,16,56,22.10
2013,07,17,16,57,22.10
2013,07,17,16,58,22.20
2013,07,17,16,59,22.20
2013,07,17,17,00,22.20
2013,07,17,17,01,22.20
2013,07,17,17,02,22.20
2013,07,17,17,03,22.20
2013,07,17,17,04,22.20
2013,07,17,17,05,22.20
2013,07,17,17,06,22.20
2013,07,17,17,07,22.20
2013,07,17,17,08,22.30
2013,07,17,17,09,22.20
2013,07,17,17,10,22.10
2013,07,17,17,11,22.00
2013,07,17,17,12,22.00
2013,07,17,17,13,22.00
2013,07,17,17,14,22.00
2013,07,17,17,15,22.00
2013,07,17,17,16,22.00
2013,07,17,17,17,22.00
2013,07,17,17,18,22.10
2013,07,17,17,19,22.10
2013,07,17,17,20,22.10
2013,07,17,17,21,22.20
2013,07,17,17,22,22.20